TimeEST,TemperatureF,Dew PointF,Humidity,Sea Level PressureIn,VisibilityMPH,Wind Direction,Wind SpeedMPH,Gust SpeedMPH,PrecipitationIn,Events,Conditions,WindDirDegrees,DateUTC
12:53 AM,41.0,39.0,93,30.37,4.0,Calm,Calm,-,N/A,,Clear,0,2012-11-29 05:53:00
1:53 AM,39.0,37.0,93,30.36,5.0,NNE,3.5,-,N/A,,Clear,30,2012-11-29 06:53:00
2:53 AM,39.0,37.0,93,30.36,3.0,North,3.5,-,N/A,,Clear,10,2012-11-29 07:53:00
3:25 AM,39.2,37.4,93,30.33,1.8,Calm,Calm,-,N/A,,Scattered Clouds,0,2012-11-29 08:25:00
3:35 AM,39.2,37.4,93,30.32,2.0,Calm,Calm,-,N/A,,Mostly Cloudy,0,2012-11-29 08:35:00
3:43 AM,39.2,37.4,93,30.32,4.0,Calm,Calm,-,N/A,,Mostly Cloudy,0,2012-11-29 08:43:00
3:53 AM,39.9,37.9,93,30.36,3.0,Calm,Calm,-,N/A,,Mostly Cloudy,0,2012-11-29 08:53:00
4:53 AM,41.0,39.0,93,30.35,5.0,Calm,Calm,-,N/A,,Overcast,0,2012-11-29 09:53:00
5:53 AM,42.1,39.9,92,30.36,5.0,NNE,6.9,-,N/A,,Mostly Cloudy,20,2012-11-29 10:53:00
6:53 AM,44.1,41.0,89,30.38,6.0,NNE,8.1,-,N/A,,Overcast,30,2012-11-29 11:53:00
7:53 AM,45.0,42.1,90,30.39,5.0,NE,8.1,-,N/A,,Overcast,40,2012-11-29 12:53:00
8:53 AM,48.0,45.0,89,30.40,5.0,NE,8.1,-,N/A,,Overcast,40,2012-11-29 13:53:00
9:00 AM,48.2,44.6,87,30.36,6.0,NNE,6.9,-,N/A,,Scattered Clouds,30,2012-11-29 14:00:00
9:53 AM,54.0,46.9,77,30.40,8.0,NE,6.9,-,N/A,,Clear,40,2012-11-29 14:53:00
10:53 AM,57.9,48.0,70,30.41,10.0,ENE,8.1,-,N/A,,Overcast,60,2012-11-29 15:53:00
11:53 AM,60.1,48.0,64,30.39,10.0,NNE,9.2,-,N/A,,Scattered Clouds,30,2012-11-29 16:53:00
12:53 PM,63.0,48.9,60,30.37,10.0,NE,5.8,-,N/A,,Clear,40,2012-11-29 17:53:00
1:53 PM,64.0,48.9,58,30.34,10.0,Calm,Calm,-,N/A,,Clear,0,2012-11-29 18:53:00
2:53 PM,66.0,50.0,56,30.31,7.0,NE,5.8,-,N/A,,Partly Cloudy,40,2012-11-29 19:53:00
3:53 PM,64.0,50.0,60,30.31,10.0,North,5.8,-,N/A,,Overcast,10,2012-11-29 20:53:00
4:53 PM,63.0,51.1,65,30.32,10.0,North,3.5,-,N/A,,Overcast,10,2012-11-29 21:53:00
5:53 PM,59.0,53.1,81,30.32,10.0,North,4.6,-,N/A,,Overcast,360,2012-11-29 22:53:00
6:53 PM,55.9,50.0,80,30.32,10.0,North,6.9,-,N/A,,Mostly Cloudy,360,2012-11-29 23:53:00
7:53 PM,54.0,48.9,83,30.32,9.0,North,3.5,-,N/A,,Clear,10,2012-11-30 00:53:00
8:53 PM,53.1,48.9,86,30.32,9.0,North,3.5,-,N/A,,Partly Cloudy,360,2012-11-30 01:53:00
9:53 PM,51.1,46.9,86,30.33,8.0,NW,4.6,-,N/A,,Clear,320,2012-11-30 02:53:00
10:53 PM,50.0,46.9,89,30.33,7.0,Calm,Calm,-,N/A,,Partly Cloudy,0,2012-11-30 03:53:00
11:53 PM,54.0,48.9,83,30.31,10.0,NNE,6.9,-,N/A,,Overcast,20,2012-11-30 04:53:00